Other Public Products
Issued by NWS Charleston, SC

Current Version | Previous Version | Graphics & Text | Print | Product List | Glossary On
Versions: 1 2 3 4 5 6 7 8 9 10 11 12 13 14 15 16 17 18 19 20 21 22 23 24 25 26 27 28 29 30 31 32 33 34 35 36 37 38 39 40 41 42 43 44 45 46 47 48 49 50
000 FPUS82 KCHS 250530 OPUCHS TEST...KCHS/KSAV Gateway Observations...TEST National Weather Service Charleston SC 100 AM EDT MON SEP 25 2017 NOTE: "fair" indicates few or no clouds below 12,000 feet with no significant weather and/or obstructions to visibility. SCZ050-WAZ558-NCZ071-TXZ119-213-PAZ071-DCZ001-FLZ074-172-MI076- NYZ176-178-MAZ016-IL014-TNZ027-NJZ106-GAZ044-MD014-250600- ...Gateway Observations for Charleston International... CITY SKY/WX TMP DP RH WIND PRES REMARKS Chas Airport CLOUDY 73 69 87 N6 29.91F Seattle CLOUDY 62 48 60 CALM 30.11R Charlotte MOCLDY 68 63 84 N7 30.03S Dallas DFW PTCLDY 82 67 60 S10 29.88R Dallas Love PTCLDY 81 65 58 SE12 29.89R Philladelphia PTCLDY 73 67 81 CALM 30.03F Wash National MOCLDY 75 68 78 NW7 30.04F Baltimore PTCLDY 68 67 96 CALM 30.03F Miami PTCLDY 83 75 77 CALM 29.87F HX 90 Detroit CLEAR 73 65 75 CALM 30.08F Newark CLEAR 76 66 71 CALM 30.03F Laguardia CLEAR 74 67 78 NE5 30.03S J F K CLEAR 71 66 84 CALM 30.05S Boston Logan CLEAR 68 65 90 S5 30.03F Ft. Lauderdale MOCLDY 82 76 81 NW3 29.86F Chicago O`Hare CLEAR 73 61 65 SE5 30.00F Chicago Midway CLEAR 78 61 55 S6 30.00F Houston Bush PTCLDY 74 72 93 E6 29.88F Houston Hobby PTCLDY 80 73 79 CALM 29.88S Nashville PTCLDY 74 65 73 CALM 30.01F Atlanta PTCLDY 74 64 71 NE7 30.01F $$ GAZ044-118-TXZ119-213-NCZ071-DCZ001-MDZ014-506-PAZ021-071-NJZ106- NYZ176-178-MAZ106-OHZ011-021-055-MIZ076-KYZ091-ILZ014-INZ047- MNZ060-ONZ431-250600- ...Gateway Observations for Savannah International... CITY SKY/WX TMP DP RH WIND PRES REMARKS Savannah Arpt CLOUDY 72 70 93 N5 29.93F Atlanta PTCLDY 74 64 71 NE7 30.01F Charlotte MOCLDY 68 63 84 N7 30.03S Dallas DFW PTCLDY 82 67 60 S10 29.88R Houston Bush PTCLDY 74 72 93 E6 29.88F Wash National MOCLDY 75 68 78 NW7 30.04F Wash Dulles PTCLDY 66 65 96 CALM 30.05F Baltimore PTCLDY 68 67 96 CALM 30.03F Philadelphia PTCLDY 73 67 81 CALM 30.03F Newark CLEAR 76 66 71 CALM 30.03F Laguardia CLEAR 74 67 78 NE5 30.03S J F K CLEAR 71 66 84 CALM 30.05S Boston CLEAR 68 65 90 S5 30.03F Pittsburg CLEAR 70 64 81 CALM 30.10F Akron CLEAR 72 63 73 NE7 30.10F Cleveland PTCLDY 72 66 81 CALM 30.10S Cincinnati PTCLDY 70 58 65 CALM 30.05S Columbus PTCLDY 66 64 91 NE6 30.05F Detroit CLEAR 73 65 75 CALM 30.08F Chicago O`Hare CLEAR 73 61 65 SE5 30.00F Minneapolis CLOUDY 72 67 84 W7 29.93R Indianapolis PTCLDY 71 57 61 E5 30.04S Toronto Canada CLEAR 75 64 69 W2 30.09S $$

USA.gov is the U.S. government's official web portal to all federal, state and local government web resources and services.